Temperature
14 14 14 14 14 14 14 14 14 14 14 14 14 14 14 14 14 14 14 13 13 13 13 13 13 13 13 13 13 13 13 13 13 13 13 12 12 12 12 12 11 11 11
13 13 13 13 13 13 13 14 14 14 14 14 14 14 14 14 14 13 13 13 13 13 13 13 13 13 13 13 13 13 13 13 13 12 12 12 12 12 12 11 11 11 11
13 13 13 13 13 13 13 13 13 13 13 13 13 13 13 13 13 13 13 13 13 13 13 13 13 13 13 13 13 13 13 12 12 12 12 12 11 11 11 11 11 11 11
12 13 13 13 13 13 13 13 13 13 13 13 13 13 13 13 13 13 13 13 13 13 13 13 13 13 12 12 12 12 12 12 12 12 12 12 11 11 11 11 11 11 10
12 12 12 12 12 12 12 12 12 12 12 12 12 13 13 13 13 13 13 12 12 12 12 12 12 12 12 12 12 12 12 12 12 11 11 11 11 11 11 11 10 10 10
12 12 12 12 12 12 12 12 12 12 12 12 12 12 12 12 12 12 12 12 12 12 12 12 12 12 12 12 11 11 11 11 11 11 11 11 11 11 10 10 10 10 10
11 11 11 11 12 12 12 12 11 12 12 12 12 12 12 12 12 12 12 12 12 12 11 11 11 11 11 11 11 11 11 11 10 11 11 10 10 10 10 10 9 9 9
11 11 11 11 11 11 11 11 11 11 11 11 11 11 11 11 11 12 11 11 11 11 11 11 11 11 11 11 11 11 10 10 10 10 10 10 9 9 9 9 9 9 9
10 11 11 10 11 11 11 11 11 11 11 11 10 10 10 10 11 11 11 11 11 11 11 10 10 10 10 10 10 10 10 10 10 10 9 9 9 9 9 9 9 8 8
10 10 10 10 10 10 10 10 10 10 10 10 10 10 10 10 10 10 10 10 10 10 10 10 10 10 10 10 10 10 10 10 9 9 9 9 8 8 8 8 8 8 8
10 10 10 10 10 10 10 10 10 10 9 9 9 9 9 9 9 9 9 10 10 10 10 10 9 10 9 9 10 9 9 9 9 9 9 8 8 8 8 8 8 8 8
9 9 9 9 9 9 9 9 9 9 9 9 9 9 9 9 9 9 9 9 9 9 9 9 9 9 9 9 9 9 9 8 8 8 8 8 8 8 8 8 8 7 7
9 9 9 9 9 9 9 9 9 9 9 9 9 9 9 8 9 9 8 8 8 9 9 9 9 8 8 8 8 8 8 8 8 8 8 8 8 8 8 8 7 7 7
9 9 8 8 8 8 8 8 8 8 8 8 8 8 8 8 8 8 8 8 8 8 8 8 8 8 8 8 8 8 8 8 8 7 7 7 7 7 7 7 7 7 7
8 8 8 8 8 8 8 8 8 8 8 8 8 8 8 8 8 8 8 7 7 7 7 8 8 8 7 7 7 7 8 7 7 7 7 7 7 7 7 7 7 7 6
7 7 7 7 7 7 7 7 7 7 7 8 7 7 7 8 7 7 7 7 7 7 7 7 7 7 7 7 7 7 7 7 7 7 7 7 7 6 6 6 6 6 6
7 7 7 7 7 7 7 7 7 7 7 7 7 7 7 7 7 7 7 7 7 6 6 6 7 7 6 7 7 6 6 6 6 6 6 6 6 6 6 6 6 6 6
7 7 7 7 7 7 7 6 6 6 6 6 6 6 6 6 6 6 6 6 6 6 6 6 6 6 6 6 6 6 6 6 6 6 6 6 6 6 5 5 5 5 5
6 6 6 6 6 6 6 6 6 6 6 6 6 6 6 6 6 6 6 6 6 5 5 5 5 6 6 6 6 6 5 5 5 5 5 5 5 5 5 5 5 5 4
6 6 6 6 6 6 6 6 6 6 6 6 6 6 5 5 5 5 5 5 5 5 5 5 5 5 5 5 5 5 5 5 5 5 5 5 5 5 4 4 4 4 4
6 6 6 6 5 5 5 5 5 5 5 5 5 5 5 5 5 5 5 5 5 4 4 4 4 4 4 4 4 4 4 4 4 4 4 4 4 4 4 4 4 4 3
6 6 5 5 5 5 5 5 5 5 5 5 5 5 5 5 5 5 4 4 4 4 4 4 4 4 4 4 3 3 3 3 3 3 3 4 4 4 4 3 3 3 3
5 5 5 5 5 5 5 5 5 4 4 5 5 4 4 4 4 4 4 4 4 4 3 3 3 3 3 3 3 2 2 2 2 2 2 3 3 3 3 3 3 3 3
5 5 5 5 5 5 5 4 4 4 4 4 4 4 4 4 4 4 4 4 3 3 3 3 3 3 2 2 2 2 1 1 2 2 1 2 2 2 2 2 2 2 2
4 4 4 4 4 4 4 4 4 4 4 4 4 3 3 3 3 3 3 3 3 3 3 2 2 2 2 2 1 1 1 1 1 1 1 0 1 1 2 2 2 2 2
4 4 4 4 4 4 4 4 3 3 3 3 3 3 3 3 3 3 3 3 3 3 2 2 2 2 1 1 1 1 0 -0 -0 -0 0 -0 -0 -1 -0 1 1 1 1
Wind_Speed
2 2 2 3 3 4 4 3 3 4 4 5 6 6 6 7 8 9 10 12 13 13 13 12 11 10 9 8 7 6 6 5 4 4 4 5 6 6 6 7 7 7 8
3 2 2 2 3 4 4 4 4 3 3 3 4 5 5 5 7 9 10 12 13 14 13 12 12 11 10 10 9 8 7 7 6 6 5 5 6 6 7 8 8 8 9
3 2 2 2 2 3 3 3 3 3 3 3 4 4 4 4 5 7 9 10 10 12 13 13 12 12 11 11 10 9 8 8 8 7 7 7 7 8 8 8 9 9 10
2 2 1 1 2 2 2 2 2 2 3 3 3 4 3 3 5 6 6 7 8 9 11 12 12 12 11 11 11 10 9 9 8 8 8 9 9 9 9 9 10 10 11
1 2 1 1 1 1 1 2 2 2 2 3 3 3 3 3 4 4 5 6 7 7 7 8 10 10 10 10 10 10 10 10 9 9 10 10 10 10 11 11 11 11 12
0 1 1 1 1 1 1 1 2 2 2 2 2 2 3 3 3 3 4 4 5 6 6 6 6 7 8 10 10 10 10 10 10 10 10 11 11 12 12 13 13 13 13
0 1 1 1 1 1 2 2 2 2 2 0 0 1 3 2 2 3 2 3 3 4 5 6 5 5 6 9 10 10 10 10 10 10 10 11 12 12 13 14 14 14 14
1 0 1 1 1 1 2 2 2 1 1 1 1 1 2 3 2 2 2 3 3 3 3 5 5 6 6 6 7 9 9 9 10 11 11 11 12 13 14 14 14 15 14
2 1 1 1 2 2 2 3 3 3 3 2 2 2 2 3 2 2 2 2 2 2 2 3 5 6 6 5 5 6 7 8 10 11 12 12 13 14 15 15 15 15 15
2 2 2 1 2 2 2 3 3 3 3 3 2 2 2 2 2 2 2 1 2 2 3 2 3 4 5 4 5 5 6 7 9 10 11 12 13 14 14 15 15 15 15
3 3 2 2 2 2 3 3 2 3 3 4 3 2 2 1 2 2 3 2 2 2 2 3 2 3 3 4 4 5 6 7 9 11 12 13 13 14 14 14 14 14 15
2 3 2 2 2 2 3 3 3 3 4 4 4 3 3 2 3 3 3 3 3 2 2 2 2 2 2 3 3 4 5 7 9 11 12 12 13 13 14 14 14 15 15
3 4 3 3 3 3 3 3 3 4 4 4 5 4 4 3 2 3 3 3 3 2 2 2 2 2 2 2 3 4 5 7 8 10 12 13 13 13 13 14 15 15 15
4 4 4 3 4 3 3 3 3 3 3 4 4 4 3 4 3 3 3 3 2 3 3 3 2 2 2 2 4 4 5 7 9 10 11 12 13 12 13 14 14 15 15
4 4 4 4 4 4 4 3 3 3 3 4 4 4 4 3 3 3 3 4 4 4 5 4 3 2 2 3 4 4 5 6 8 9 10 11 12 12 12 12 13 13 14
4 4 4 4 4 4 4 4 4 4 4 4 3 4 4 3 3 3 4 4 4 5 5 3 3 2 2 3 5 4 6 7 8 9 10 11 12 12 12 12 12 13 14
5 5 5 5 5 5 5 4 4 4 4 4 4 4 5 4 3 3 3 3 4 4 5 3 2 2 2 3 3 4 5 6 6 9 10 11 11 11 11 11 12 13 14
5 6 6 6 6 6 5 5 6 5 5 5 5 5 5 3 4 4 3 4 4 4 4 4 2 2 3 3 3 3 4 5 5 7 8 9 9 10 11 12 12 12 13
6 5 6 6 7 6 6 6 6 6 6 6 5 5 5 5 5 4 4 4 3 3 2 3 3 2 2 2 3 3 3 3 5 7 8 8 9 10 11 12 12 12 12
6 6 6 7 7 6 6 6 6 6 6 6 5 5 5 5 5 5 4 4 3 3 2 2 3 2 2 2 1 2 3 3 4 5 6 8 9 11 11 12 12 12 12
7 6 6 7 6 6 6 6 6 6 6 5 5 5 5 6 7 6 4 4 4 3 3 3 3 2 2 2 2 2 3 4 4 3 4 4 5 5 7 10 11 12 12
6 6 6 7 7 6 9 11 8 6 6 6 6 5 5 6 7 8 8 7 7 5 5 4 3 4 4 3 2 2 2 3 3 2 3 5 4 5 5 6 10 12 13
6 6 7 7 7 8 11 12 11 7 6 6 6 5 5 5 6 4 5 5 5 6 6 5 5 5 4 4 3 3 3 3 4 3 4 5 3 5 5 8 12 12 13
6 7 7 7 7 9 12 12 11 7 6 6 6 6 6 5 5 5 4 3 3 3 4 3 4 4 3 3 3 3 3 3 3 3 1 4 4 4 6 7 11 12 13
6 7 6 7 8 9 11 12 10 5 5 6 6 6 6 6 8 8 5 4 3 2 2 3 3 3 3 2 1 1 0 1 3 3 1 2 3 5 5 5 7 11 12
7 7 7 7 8 8 11 12 11 5 6 5 4 5 9 9 10 9 6 6 5 4 3 2 1 1 1 1 1 1 2 2 2 3 1 1 3 4 4 4 4 6 8
Wind_Direction
177 191 202 200 204 207 208 220 231 242 244 244 240 236 234 226 219 210 211 213 213 215 218 220 222 225 227 227 229 230 232 232 235 247 258 269 278 279 282 292 294 296 297
176 187 200 212 215 212 215 216 222 229 236 236 240 237 235 228 221 213 213 214 216 218 221 225 227 229 229 231 233 233 230 234 239 245 257 270 278 285 285 286 287 289 291
175 177 186 205 230 221 214 215 225 226 236 242 249 246 236 227 222 218 215 215 217 220 222 227 230 232 233 237 236 232 231 234 240 246 254 263 270 276 282 285 286 286 288
178 163 179 222 236 215 207 212 217 228 241 239 245 247 239 230 227 220 214 214 215 219 223 228 229 232 236 239 241 238 238 239 242 247 253 260 267 272 278 280 282 285 287
182 168 189 234 226 206 218 231 232 221 238 249 248 247 241 232 228 220 213 211 209 208 210 220 225 230 235 242 247 246 246 247 248 252 257 262 266 270 275 278 280 280 282
203 177 196 224 212 206 224 235 238 235 235 236 257 270 264 250 227 213 212 204 200 200 201 209 217 228 233 240 245 249 252 255 257 260 265 267 268 270 273 275 277 279 280
234 170 200 219 203 215 226 226 226 234 242 197 127 304 303 279 242 222 206 192 194 200 201 208 210 218 228 233 241 245 251 258 263 269 271 273 274 275 276 277 277 279 280
302 207 196 228 222 217 231 229 219 228 236 183 159 164 295 310 287 239 210 199 200 193 203 211 205 212 222 229 240 244 250 260 267 272 275 277 278 279 280 279 279 279 280
295 279 244 234 236 218 220 225 214 215 230 236 203 172 187 235 281 298 248 211 201 204 215 221 219 219 217 219 231 241 251 261 271 276 277 277 278 279 280 281 282 283 283
292 285 273 262 240 234 233 235 220 219 217 230 246 231 220 198 203 269 298 279 234 219 223 229 225 223 216 213 221 238 255 262 271 278 283 284 283 283 283 285 286 285 285
293 281 278 275 258 249 241 244 240 223 216 220 217 212 223 245 228 217 258 286 297 261 243 236 221 216 213 215 225 244 259 269 278 279 283 285 287 289 291 293 293 292 290
282 275 266 262 254 256 252 246 239 232 227 225 219 206 194 195 202 205 231 258 268 279 280 255 221 216 220 227 239 258 267 275 280 283 285 288 292 294 295 295 293 293 293
269 267 265 259 257 254 255 250 239 241 234 225 216 219 215 216 200 196 212 238 261 282 278 267 236 211 233 238 257 268 278 283 282 285 286 289 293 295 296 295 294 293 292
252 254 255 255 258 260 262 257 247 243 237 230 226 221 220 221 211 204 200 199 249 272 263 257 259 225 244 254 265 270 282 286 284 284 287 292 295 296 297 296 295 296 295
249 246 250 256 260 259 258 254 250 248 241 232 229 224 226 227 218 217 206 199 203 240 253 242 241 247 262 263 269 270 275 279 283 287 290 294 296 296 295 297 297 299 300
246 248 248 249 256 259 255 252 252 249 243 244 234 223 227 227 223 218 213 213 211 218 245 236 234 261 266 280 275 280 273 279 281 285 288 292 295 297 296 295 297 299 300
241 244 245 244 248 252 250 250 252 249 246 248 242 233 232 220 221 222 219 217 218 214 240 264 255 274 263 270 287 283 278 274 278 283 287 292 294 296 301 303 304 303 301
244 243 245 243 243 243 239 237 242 241 239 242 242 238 239 227 221 221 217 219 220 215 223 253 270 271 267 269 277 284 294 289 286 294 296 299 302 304 307 307 307 307 307
244 245 241 241 242 240 237 234 233 235 235 236 234 231 234 223 226 224 219 221 224 227 219 237 262 272 278 282 299 300 301 296 298 298 298 299 302 307 309 308 309 310 310
239 244 244 241 240 238 236 232 230 232 234 235 233 230 228 222 225 220 219 216 212 215 217 229 256 271 274 281 286 295 306 308 308 307 303 302 303 306 308 308 309 308 308
239 240 244 241 237 235 235 228 227 229 231 236 237 231 229 226 224 218 214 207 202 210 212 229 249 266 269 272 269 274 290 306 304 298 309 307 304 302 304 305 307 307 308
239 238 241 238 235 237 239 235 229 227 229 231 237 237 235 232 233 233 227 216 202 202 210 219 237 240 252 255 260 269 291 305 297 312 320 305 300 294 294 297 303 306 308
242 243 244 237 238 240 242 241 235 225 226 229 228 228 237 234 227 221 227 228 226 224 215 208 219 235 239 236 234 253 260 272 273 291 313 296 295 291 292 301 305 305 309
242 244 246 239 238 243 242 243 238 229 228 229 225 220 223 227 219 205 198 203 217 229 226 219 218 232 235 227 218 234 247 275 287 292 281 281 298 293 301 302 305 312 314
245 243 244 239 239 247 242 239 230 220 227 230 226 220 217 222 223 212 197 199 212 231 235 214 221 231 239 237 201 161 255 300 295 290 281 278 298 305 297 291 305 317 320
245 245 247 240 237 244 244 236 225 215 221 227 226 225 227 225 221 214 199 194 209 216 192 181 204 246 235 229 232 199 197 241 275 281 272 294 299 323 311 291 299 320 323
Height
1522 1523 1524 1524 1525 1526 1527 1528 1528 1529 1530 1530 1531 1532 1532 1533 1534 1535 1535 1536 1537 1538 1538 1538 1538 1538 1537 1537 1536 1536 1535 1534 1534 1533 1532 1531 1530 1529 1528 1527 1525 1524 1523
1520 1521 1521 1522 1523 1524 1524 1525 1526 1526 1527 1527 1528 1528 1529 1530 1531 1531 1532 1533 1534 1534 1535 1535 1535 1535 1535 1534 1534 1533 1532 1532 1531 1530 1529 1528 1527 1526 1525 1524 1523 1522 1521
1517 1518 1519 1519 1520 1521 1521 1522 1523 1523 1524 1524 1524 1525 1525 1526 1527 1528 1528 1529 1530 1530 1531 1531 1531 1531 1531 1531 1531 1530 1529 1529 1528 1527 1526 1525 1525 1524 1522 1521 1520 1519 1518
1515 1515 1516 1516 1517 1518 1518 1519 1519 1520 1520 1520 1521 1521 1521 1522 1523 1524 1525 1525 1526 1527 1527 1527 1528 1528 1527 1527 1527 1526 1526 1525 1525 1524 1523 1522 1521 1520 1519 1518 1517 1515 1514
1512 1513 1513 1514 1514 1514 1515 1515 1516 1516 1516 1516 1517 1517 1517 1518 1519 1520 1520 1521 1522 1522 1523 1524 1524 1524 1523 1523 1523 1522 1522 1522 1521 1520 1519 1518 1517 1516 1515 1514 1513 1512 1510
1509 1510 1510 1511 1511 1511 1512 1512 1513 1513 1513 1513 1513 1513 1513 1514 1514 1515 1516 1517 1518 1518 1519 1519 1519 1519 1519 1519 1519 1518 1518 1517 1517 1516 1515 1514 1513 1512 1511 1510 1509 1507 1506
1506 1506 1507 1507 1508 1508 1508 1509 1509 1510 1510 1510 1510 1509 1509 1510 1510 1511 1512 1513 1513 1514 1514 1514 1515 1515 1514 1515 1514 1514 1513 1513 1512 1511 1510 1509 1508 1508 1506 1505 1504 1503 1502
1504 1504 1504 1504 1504 1505 1505 1506 1506 1506 1506 1507 1506 1506 1506 1506 1506 1507 1507 1508 1509 1510 1510 1510 1510 1510 1510 1510 1509 1509 1509 1508 1508 1507 1506 1505 1504 1503 1502 1501 1499 1498 1497
1501 1501 1500 1501 1501 1502 1502 1502 1502 1502 1502 1503 1503 1504 1503 1502 1502 1503 1503 1504 1504 1505 1505 1506 1506 1506 1505 1505 1505 1504 1504 1503 1503 1502 1501 1500 1499 1498 1497 1496 1495 1493 1492
1497 1497 1497 1497 1497 1498 1498 1498 1498 1498 1499 1499 1499 1500 1500 1500 1500 1499 1499 1500 1500 1501 1501 1501 1501 1501 1501 1500 1500 1500 1499 1499 1498 1497 1496 1495 1494 1493 1492 1491 1490 1488 1487
1494 1494 1494 1494 1494 1494 1494 1494 1494 1494 1495 1495 1495 1495 1496 1496 1496 1496 1496 1496 1496 1496 1496 1496 1496 1496 1496 1495 1495 1495 1494 1494 1493 1492 1491 1490 1489 1488 1487 1486 1484 1483 1481
1491 1491 1490 1490 1490 1490 1490 1490 1490 1490 1490 1490 1491 1491 1491 1491 1492 1492 1492 1492 1492 1492 1492 1492 1492 1491 1491 1491 1490 1490 1489 1488 1488 1487 1486 1485 1484 1483 1481 1480 1478 1477 1475
1487 1487 1486 1486 1486 1486 1486 1486 1485 1486 1486 1486 1486 1486 1486 1487 1488 1488 1488 1488 1487 1487 1487 1487 1487 1487 1487 1486 1485 1485 1484 1483 1482 1482 1481 1480 1479 1477 1476 1474 1472 1471 1469
1483 1483 1482 1482 1482 1482 1481 1481 1481 1481 1481 1481 1481 1482 1482 1482 1483 1483 1484 1484 1483 1482 1482 1482 1482 1482 1482 1482 1481 1480 1479 1478 1477 1476 1475 1474 1473 1472 1470 1468 1467 1465 1463
1479 1478 1478 1478 1477 1477 1477 1477 1476 1477 1477 1476 1477 1477 1477 1477 1478 1479 1479 1480 1481 1479 1477 1478 1478 1478 1478 1477 1476 1475 1474 1473 1472 1471 1470 1469 1467 1466 1465 1463 1461 1460 1458
1475 1474 1474 1473 1473 1473 1473 1472 1472 1472 1472 1472 1472 1472 1472 1473 1473 1474 1474 1475 1475 1475 1473 1473 1473 1473 1473 1472 1471 1470 1469 1468 1467 1465 1464 1463 1462 1460 1459 1458 1456 1454 1452
1471 1470 1470 1469 1469 1468 1468 1468 1468 1468 1467 1467 1467 1467 1467 1468 1468 1469 1469 1470 1470 1470 1469 1468 1469 1468 1468 1467 1466 1465 1464 1463 1461 1460 1459 1458 1456 1455 1453 1452 1450 1448 1446
1466 1466 1465 1465 1464 1464 1463 1463 1463 1463 1463 1463 1463 1463 1463 1463 1463 1464 1464 1465 1465 1465 1465 1464 1463 1463 1463 1462 1461 1460 1459 1458 1456 1455 1454 1453 1451 1449 1448 1446 1444 1442 1440
1462 1461 1460 1460 1459 1459 1459 1459 1458 1458 1458 1458 1458 1458 1459 1459 1459 1460 1460 1460 1460 1460 1460 1460 1459 1458 1457 1457 1456 1455 1454 1453 1452 1450 1449 1448 1446 1444 1442 1440 1439 1437 1435
1457 1456 1455 1455 1454 1454 1454 1454 1454 1454 1454 1454 1454 1454 1454 1454 1455 1455 1455 1455 1455 1456 1456 1455 1454 1453 1453 1452 1451 1450 1448 1448 1447 1446 1444 1443 1441 1439 1437 1435 1433 1431 1429
1451 1451 1450 1449 1449 1449 1449 1449 1449 1449 1449 1449 1449 1449 1449 1450 1450 1450 1451 1451 1451 1451 1451 1450 1450 1449 1448 1447 1446 1445 1444 1443 1442 1441 1439 1438 1436 1434 1432 1430 1428 1426 1424
1445 1445 1444 1444 1444 1444 1444 1444 1444 1444 1444 1444 1443 1444 1444 1444 1445 1445 1446 1446 1446 1446 1445 1446 1445 1444 1443 1443 1442 1441 1440 1438 1436 1437 1434 1432 1431 1429 1427 1426 1423 1421 1419
1440 1439 1438 1438 1438 1438 1439 1439 1439 1438 1438 1438 1438 1439 1439 1439 1440 1440 1440 1440 1441 1441 1442 1441 1440 1439 1439 1438 1438 1436 1436 1434 1433 1431 1430 1427 1426 1424 1423 1421 1419 1417 1414
1434 1433 1432 1432 1432 1432 1433 1433 1433 1433 1432 1433 1433 1433 1434 1434 1434 1435 1435 1435 1436 1436 1436 1436 1436 1435 1435 1434 1433 1433 1431 1430 1429 1427 1426 1423 1420 1419 1418 1416 1414 1412 1409
1428 1427 1427 1426 1426 1426 1427 1427 1427 1427 1427 1427 1428 1428 1428 1429 1430 1430 1430 1430 1430 1431 1431 1431 1431 1430 1430 1429 1429 1428 1427 1425 1423 1422 1422 1419 1416 1414 1412 1410 1409 1407 1404
1422 1421 1420 1420 1420 1420 1420 1421 1421 1421 1421 1421 1422 1422 1423 1424 1424 1425 1425 1425 1425 1425 1426 1426 1426 1426 1425 1425 1424 1424 1423 1422 1420 1418 1417 1416 1413 1411 1407 1405 1404 1402 1400